Flag for Falkland Islands Weather past 2 weeks in Stanley, Falkland Islands

Now
37 °F

Partly cloudy.


Feels Like: 28 °F
Forecast: 37 / 44 °F
Wind: 16 mph from North

Location: Mount Pleasant Airport

Current Time: Jul 30, 2015 at 4:00:26 AM

Latest Report: Jul 30, 2015 at 2:50 AM


Visibility: N/A

Pressure: 29.92 "Hg

Humidity: 81%

Dew point: 32 °F

Location of StanleyLocation

Historic Weather in Stanley — Graph

°F

Stanley temperature yesterday

Maximum temperature yesterday: 39 °F (at 12:50 PM)
Minimum temperature yesterday: 32 °F (at 3:50 AM)
Average temperature yesterday: 35 °F

Past Weeks' High & Low Weather Summary

 TemperatureHumidityPressure
High48 °F (Jul 25, 11:50 AM)100% (Jul 19, 12:50 PM)30.12 "Hg (Jul 19, 12:50 PM)
Low28 °F (Jul 19, 5:50 PM)54% (Jul 25, 11:50 PM)28.94 "Hg (Jul 17, 1:50 PM)
Average38 °F85%29.44 "Hg
* Reported Jul 15 2:50 AM — Jul 30 2:50 AM, Stanley, Weather by CustomWeather, © 2015

Note: Actual official high and low records may vary slightly from our data, if they occured in-between our weather recording intervals... More about our weather records

Advertising

Stanley weather history for previous 24 hours

 ConditionsComfort  
Time TempWeatherWind HumidityBarometerVisibility
2:50 AM
Thu, Jul 30
37 °FPartly cloudy.16 mph81%29.92 "HgN/A
1:50 AM32 °FClear.8 mph80%29.92 "Hg10 mi
12:50 AM36 °FClear.15 mph81%29.92 "Hg10 mi
11:50 PM
Wed, Jul 29
34 °FClear.7 mph81%29.92 "Hg10 mi
10:50 PM36 °FClear.8 mph75%29.92 "Hg10 mi
9:50 PM32 °FClear.8 mph87%29.92 "Hg10 mi
8:50 PM32 °FPassing clouds.5 mph93%29.95 "HgN/A
7:50 PM34 °FPassing clouds.3 mph81%29.92 "HgN/A
6:50 PM34 °FPassing clouds.7 mph87%29.92 "HgN/A
5:50 PM34 °FPassing clouds.8 mph87%29.92 "HgN/A
4:50 PM37 °FPassing clouds.8 mph75%29.92 "HgN/A
3:50 PM39 °FPartly sunny.10 mph70%29.92 "HgN/A
2:50 PM39 °FPartly sunny.8 mph70%29.92 "HgN/A
1:50 PM39 °FPartly sunny.10 mph65%29.92 "HgN/A
12:50 PM39 °FPartly sunny.8 mph65%29.92 "HgN/A
11:50 AM37 °FPartly sunny.6 mph75%29.92 "HgN/A
10:50 AM37 °FPartly sunny.6 mph87%29.89 "HgN/A
9:50 AM36 °FPartly sunny.8 mph93%29.89 "HgN/A
8:50 AM34 °FPartly sunny.7 mph93%29.89 "HgN/A
7:50 AM34 °FPassing clouds.7 mph93%29.86 "HgN/A
6:50 AM34 °FPassing clouds.8 mph93%29.86 "HgN/A
5:50 AM34 °FPassing clouds.8 mph87%29.83 "HgN/A
4:50 AM32 °FPassing clouds.8 mph87%29.83 "HgN/A
Weather by CustomWeather, © 2015

See weather overviewHow to use our weather pages